FW6266 Weather Reports


Display with metric or nautical units.
time (UTC)temp
F
wind
direction
speed
MPH
gust
MPH
rain 1hr
in
rain 24hr
in
rain mn
in
humidity
%
barometer
mb
20260906051559 64 0 0.0 0.0 0.00 0.34 0.00 93 1017.8
20260906050126 65 0 0.0 0.0 0.00 0.34 0.00 93 1017.6
20260906044602 65 0 0.0 0.0 0.00 0.34 0.00 93 1017.5
20260906043110 65 0 0.0 0.0 0.00 0.34 0.00 93 1017.6
20260906041606 66 0 0.0 0.0 0.00 0.34 0.00 93 1017.7
20260906040114 66 0 0.0 0.0 0.00 0.34 0.00 92 1017.7
20260906034603 66 0 0.0 0.0 0.00 0.34 0.34 92 1018.0
20260906033103 66 0 0.0 0.0 0.00 0.34 0.34 92 1018.1
20260906031604 67 0 0.0 0.0 0.00 0.34 0.34 91 1018.3
20260906030134 67 0 0.0 0.0 0.00 0.34 0.34 92 1018.2
20260906024603 67 0 0.0 0.0 0.00 0.34 0.34 91 1018.0
20260906023112 67 0 0.0 0.0 0.00 0.34 0.34 91 1017.8
20260906021612 68 0 0.0 0.0 0.00 0.34 0.34 91 1017.6
20260906020107 68 0 0.0 0.0 0.00 0.34 0.34 90 1017.8
20260906014623 68 0 0.0 0.0 0.00 0.34 0.34 90 1017.5
20260906013103 69 0 0.0 0.0 0.00 0.34 0.34 91 1017.5
20260906011606 69 0 0.0 0.0 0.00 0.34 0.34 90 1017.6
20260906004606 70 0 0.0 0.0 0.00 0.34 0.34 90 1017.2
20260906003109 71 0 0.0 0.0 0.00 0.34 0.34 90 1017.1
20260906001603 71 0 0.0 0.0 0.00 0.34 0.34 88 1017.1
20260906000101 72 0 0.0 0.0 0.00 0.34 0.34 88 1017.0
20260905234615 73 0 0.0 0.0 0.00 0.34 0.34 88 1016.7
20260905233104 74 0 0.0 0.0 0.00 0.34 0.34 88 1016.7
20260905231608 74 0 0.0 0.0 0.00 0.34 0.34 88 1016.7
20260905230109 75 0 0.0 0.0 0.00 0.34 0.34 86 1016.7
20260905224610 76 0 0.0 0.0 0.00 0.34 0.34 86 1016.6
20260905223107 76 309 0.0 1.0 0.00 0.34 0.34 86 1016.8
20260905221605 75 0 0.0 0.0 0.00 0.34 0.34 86 1016.7
20260905220107 76 0 0.0 0.0 0.00 0.34 0.34 85 1016.7
20260905214610 76 0 0.0 1.0 0.00 0.34 0.34 84 1016.7
20260905213109 75 0 0.0 1.0 0.00 0.34 0.34 86 1017.2
20260905211604 74 0 0.0 1.0 0.00 0.34 0.34 87 1017.4
20260905210106 74 0 0.0 2.0 0.00 0.34 0.34 89 1017.4
20260905204604 73 0 0.0 1.0 0.00 0.34 0.34 86 1017.6
20260905203108 73 0 0.0 3.0 0.00 0.34 0.34 88 1017.3
20260905201607 72 0 0.0 0.0 0.00 0.34 0.34 91 1017.8
20260905194602 71 0 0.0 1.0 0.00 0.34 0.34 93 1017.9
20260905193057 70 313 0.0 3.0 0.00 0.34 0.34 93 1018.1
20260905191615 69 0 0.0 3.0 0.00 0.34 0.34 92 1018.2
20260905190105 69 0 0.0 1.0 0.03 0.34 0.34 92 1018.9
20260905184611 68 287 0.0 2.0 0.32 0.34 0.34 90 1018.6
20260905183102 68 284 0.0 3.0 0.34 0.34 0.34 89 1018.8
20260905181604 68 0 0.0 5.0 0.34 0.34 0.34 87 1018.7
20260905174619 80 331 4.0 12.0 0.02 0.02 0.02 68 1019.7
20260905173113 85 0 0.0 0.0 0.00 0.00 0.00 64 1018.5
20260905171556 88 0 0.0 0.0 0.00 0.00 0.00 62 1018.4
20260905170101 89 0 0.0 0.0 0.00 0.00 0.00 56 1018.5
20260905164602 89 0 0.0 0.0 0.00 0.00 0.00 57 1018.7
20260905163105 89 0 0.0 0.0 0.00 0.00 0.00 57 1019.1
20260905161604 88 0 0.0 0.0 0.00 0.00 0.00 56 1019.2
20260905160100 88 0 0.0 0.0 0.00 0.00 0.00 56 1019.2
20260905154604 87 0 0.0 0.0 0.00 0.00 0.00 58 1019.2
20260905153113 86 0 0.0 0.0 0.00 0.00 0.00 60 1019.3
20260905151604 86 0 0.0 0.0 0.00 0.00 0.00 61 1019.3
20260905150104 86 0 0.0 0.0 0.00 0.00 0.00 63 1019.4
20260905144600 85 0 0.0 1.0 0.00 0.00 0.00 62 1019.2
20260905143059 85 0 0.0 0.0 0.00 0.00 0.00 68 1019.3
20260905141614 83 0 0.0 0.0 0.00 0.00 0.00 73 1019.4
20260905140107 80 0 0.0 0.0 0.00 0.00 0.00 78 1019.5
20260905134615 77 0 0.0 0.0 0.00 0.00 0.00 82 1019.5
20260905133102 74 0 0.0 0.0 0.00 0.00 0.00 87 1019.7
20260905131608 70 0 0.0 0.0 0.00 0.00 0.00 91 1019.9
20260905130106 67 0 0.0 0.0 0.00 0.00 0.00 94 1019.8
20260905124602 65 0 0.0 0.0 0.00 0.00 0.00 94 1019.7
20260905123100 64 0 0.0 0.0 0.00 0.00 0.00 94 1019.6
20260905121603 63 0 0.0 0.0 0.00 0.00 0.00 94 1019.6
20260905120101 63 0 0.0 0.0 0.00 0.00 0.00 93 1019.4
20260905114627 62 0 0.0 0.0 0.00 0.00 0.00 93 1019.5
20260905113103 62 0 0.0 0.0 0.00 0.00 0.00 92 1019.3
20260905111602 62 0 0.0 0.0 0.00 0.00 0.00 92 1018.9
20260905110100 62 0 0.0 0.0 0.00 0.00 0.00 92 1018.8
20260905104605 62 0 0.0 0.0 0.00 0.00 0.00 92 1018.5
20260905103102 63 0 0.0 0.0 0.00 0.00 0.00 91 1018.5
20260905101600 63 0 0.0 0.0 0.00 0.00 0.00 91 1018.4
20260905100115 63 0 0.0 0.0 0.00 0.00 0.00 91 1018.4
20260905094622 63 0 0.0 0.0 0.00 0.00 0.00 91 1018.4
20260905093101 63 0 0.0 0.0 0.00 0.00 0.00 91 1018.5
20260905091615 64 0 0.0 0.0 0.00 0.00 0.00 91 1018.4
20260905090059 64 0 0.0 0.0 0.00 0.00 0.00 91 1018.4
20260905084559 64 0 0.0 0.0 0.00 0.00 0.00 91 1018.7
20260905083055 65 0 0.0 0.0 0.00 0.00 0.00 91 1018.8
20260905081603 65 0 0.0 0.0 0.00 0.00 0.00 91 1018.9
20260905080100 65 0 0.0 0.0 0.00 0.00 0.00 90 1018.9
20260905074602 65 0 0.0 0.0 0.00 0.00 0.00 91 1019.1
20260905073109 65 0 0.0 0.0 0.00 0.00 0.00 91 1019.2
20260905071601 66 0 0.0 0.0 0.00 0.00 0.00 91 1019.4
20260905070101 66 0 0.0 0.0 0.00 0.00 0.00 91 1019.4
20260905064614 66 0 0.0 0.0 0.00 0.00 0.00 91 1019.5
20260905063103 66 0 0.0 0.0 0.00 0.00 0.00 91 1019.7
20260905061619 67 0 0.0 0.0 0.00 0.00 0.00 90 1019.7
20260905060104 67 0 0.0 0.0 0.00 0.00 0.00 91 1019.8
20260905054606 67 0 0.0 0.0 0.00 0.00 0.00 90 1019.9
20260905053059 67 0 0.0 0.0 0.00 0.00 0.00 90 1020.2